• In Germany
  • List of Countries
  • For 7 days
  • Water Temperature
  • Satellite Maps
  • Weather Map
  • Weather Widgets
  • user-avatar
    Login

    Hourly Weather Manika

    Today, 18 September, Tuesday

    Time Temperature Precipitation Wind Pressure Humidity
    00:00 +23°C° 0 mm 1 mps 679 mmHg 30%
    01:00 +22°C° 0 mm 1 mps 679 mmHg 31%
    02:00 +21°C° 0 mm 1 mps 678 mmHg 35%
    03:00 +21°C° 0 mm 1 mps 678 mmHg 36%
    04:00 +20°C° 0 mm 1 mps 678 mmHg 37%
    05:00 +20°C° 0 mm 1 mps 678 mmHg 38%
    06:00 +23°C° 0 mm 1 mps 679 mmHg 33%
    07:00 +25°C° 0 mm 1 mps 680 mmHg 28%
    08:00 +29°C° 0 mm 1 mps 681 mmHg 22%
    09:00 +31°C° 0 mm 1 mps 681 mmHg 17%
    10:00 +35°C° 0 mm 2 mps 681 mmHg 13%
    11:00 +37°C° 0 mm 2 mps 681 mmHg 9%
    12:00 +38°C° 0 mm 2 mps 681 mmHg 8%
    13:00 +38°C° 0 mm 3 mps 681 mmHg 7%
    14:00 +38°C° 0 mm 3 mps 680 mmHg 6%
    15:00 +37°C° 0 mm 3 mps 680 mmHg 7%
    16:00 +36°C° 0 mm 3 mps 680 mmHg 8%
    17:00 +35°C° 0 mm 3 mps 680 mmHg 9%
    18:00 +31°C° 0 mm 3 mps 680 mmHg 14%
    19:00 +29°C° 0 mm 2 mps 680 mmHg 18%
    20:00 +26°C° 0 mm 2 mps 680 mmHg 22%
    21:00 +25°C° 0 mm 2 mps 680 mmHg 24%
    22:00 +24°C° 0 mm 2 mps 680 mmHg 26%
    23:00 +23°C° 0 mm 1 mps 680 mmHg 28%

    Tomorrow, 19 September, Wednesday

    Time Temperature Precipitation Wind Pressure Humidity
    00:00 +23°C° 0 mm 1 mps 680 mmHg 30%
    01:00 +22°C° 0 mm 1 mps 680 mmHg 31%
    02:00 +21°C° 0 mm 1 mps 679 mmHg 33%
    03:00 +21°C° 0 mm 1 mps 679 mmHg 35%
    04:00 +21°C° 0 mm 1 mps 679 mmHg 36%
    05:00 +20°C° 0 mm 1 mps 679 mmHg 38%
    06:00 +23°C° 0 mm 2 mps 680 mmHg 33%
    07:00 +25°C° 0 mm 2 mps 681 mmHg 28%
    08:00 +28°C° 0 mm 2 mps 681 mmHg 23%
    09:00 +31°C° 0 mm 2 mps 682 mmHg 19%
    10:00 +34°C° 0 mm 2 mps 682 mmHg 15%
    11:00 +37°C° 0 mm 2 mps 682 mmHg 11%
    12:00 +37°C° 0 mm 2 mps 682 mmHg 10%
    13:00 +38°C° 0 mm 3 mps 681 mmHg 10%
    14:00 +39°C° 0 mm 3 mps 680 mmHg 9%
    15:00 +38°C° 0 mm 3 mps 680 mmHg 10%
    16:00 +37°C° 0 mm 3 mps 680 mmHg 11%
    17:00 +36°C° 0 mm 4 mps 680 mmHg 12%
    18:00 +33°C° 0 mm 3 mps 680 mmHg 16%
    19:00 +29°C° 0 mm 2 mps 680 mmHg 19%
    20:00 +27°C° 0 mm 2 mps 680 mmHg 22%
    21:00 +26°C° 0 mm 2 mps 680 mmHg 24%
    22:00 +25°C° 0 mm 2 mps 680 mmHg 25%
    23:00 +24°C° 0 mm 1 mps 681 mmHg 27%

    Day after tomorrow, 20 September, Thursday

    Time Temperature Precipitation Wind Pressure Humidity
    00:00 +23°C° 0 mm 1 mps 680 mmHg 28%
    01:00 +23°C° 0 mm 1 mps 680 mmHg 28%
    02:00 +22°C° 0 mm 1 mps 680 mmHg 29%
    03:00 +22°C° 0 mm 1 mps 680 mmHg 30%
    04:00 +21°C° 0 mm 1 mps 679 mmHg 30%
    05:00 +21°C° 0 mm 1 mps 679 mmHg 31%
    06:00 +23°C° 0 mm 1 mps 680 mmHg 29%
    07:00 +26°C° 0 mm 1 mps 681 mmHg 28%
    08:00 +29°C° 0 mm 1 mps 682 mmHg 26%
    09:00 +31°C° 0 mm 2 mps 683 mmHg 22%
    10:00 +34°C° 0 mm 2 mps 683 mmHg 18%
    11:00 +36°C° 0 mm 3 mps 683 mmHg 14%
    12:00 +37°C° 0 mm 3 mps 683 mmHg 14%
    13:00 +37°C° 0 mm 4 mps 682 mmHg 13%
    14:00 +37°C° 0 mm 5 mps 681 mmHg 13%
    15:00 +36°C° 0 mm 5 mps 681 mmHg 15%
    16:00 +35°C° 0 mm 5 mps 681 mmHg 18%
    17:00 +34°C° 0 mm 5 mps 680 mmHg 21%
    18:00 +32°C° 0 mm 5 mps 681 mmHg 29%
    19:00 +29°C° 0 mm 4 mps 681 mmHg 37%
    20:00 +27°C° 0 mm 4 mps 682 mmHg 45%
    21:00 +25°C° 0 mm 3 mps 682 mmHg 54%
    22:00 +24°C° 0 mm 3 mps 682 mmHg 62%
    23:00 +23°C° 0 mm 2 mps 683 mmHg 71%

    21 September, Friday

    Time Temperature Precipitation Wind Pressure Humidity
    00:00 +21°C° 0 mm 2 mps 682 mmHg 74%
    01:00 +20°C° 0 mm 2 mps 682 mmHg 78%
    02:00 +21°C° 0 mm 1 mps 682 mmHg 81%
    03:00 +20°C° 0 mm 1 mps 682 mmHg 82%
    04:00 +20°C° 0 mm 1 mps 682 mmHg 83%
    05:00 +20°C° 0 mm 1 mps 682 mmHg 84%
    06:00 +21°C° 0 mm 1 mps 682 mmHg 75%
    07:00 +23°C° 0 mm 2 mps 683 mmHg 65%
    08:00 +24°C° 0 mm 2 mps 684 mmHg 56%
    09:00 +27°C° 0 mm 2 mps 684 mmHg 46%
    10:00 +29°C° 0 mm 3 mps 684 mmHg 35%
    11:00 +33°C° 0 mm 3 mps 684 mmHg 25%
    12:00 +34°C° 0 mm 3 mps 683 mmHg 23%
    13:00 +34°C° 0 mm 4 mps 682 mmHg 21%
    14:00 +35°C° 0 mm 4 mps 682 mmHg 19%
    15:00 +34°C° 0 mm 4 mps 681 mmHg 20%
    16:00 +33°C° 0 mm 4 mps 681 mmHg 22%
    17:00 +32°C° 0 mm 4 mps 680 mmHg 24%
    18:00 +29°C° 0 mm 4 mps 681 mmHg 29%
    19:00 +27°C° 0 mm 3 mps 681 mmHg 35%
    20:00 +25°C° 0 mm 3 mps 681 mmHg 40%
    21:00 +24°C° 0 mm 2 mps 681 mmHg 46%
    22:00 +23°C° 0 mm 2 mps 681 mmHg 51%
    23:00 +21°C° 0 mm 2 mps 682 mmHg 57%

    22 September, Saturday

    Time Temperature Precipitation Wind Pressure Humidity
    00:00 +20°C° 0 mm 2 mps 681 mmHg 62%
    01:00 +20°C° 0 mm 1 mps 680 mmHg 67%
    02:00 +19°C° 0 mm 1 mps 680 mmHg 72%
    03:00 +19°C° 0 mm 1 mps 680 mmHg 74%
    04:00 +18°C° 0 mm 1 mps 680 mmHg 76%
    05:00 +18°C° 0 mm 1 mps 680 mmHg 77%
    06:00 +20°C° 0 mm 1 mps 681 mmHg 65%
    07:00 +23°C° 0 mm 1 mps 682 mmHg 53%
    08:00 +26°C° 0 mm 1 mps 683 mmHg 41%
    09:00 +28°C° 0 mm 2 mps 683 mmHg 32%
    10:00 +31°C° 0 mm 2 mps 683 mmHg 22%
    11:00 +34°C° 0 mm 3 mps 683 mmHg 13%
    12:00 +35°C° 0 mm 3 mps 682 mmHg 12%
    13:00 +35°C° 0 mm 4 mps 681 mmHg 11%
    14:00 +36°C° 0 mm 4 mps 681 mmHg 9%
    15:00 +35°C° 0 mm 4 mps 681 mmHg 11%
    16:00 +33°C° 0 mm 5 mps 680 mmHg 13%
    17:00 +32°C° 0 mm 5 mps 680 mmHg 15%
    18:00 +29°C° 0 mm 4 mps 680 mmHg 20%
    19:00 +27°C° 0 mm 4 mps 681 mmHg 25%
    20:00 +25°C° 0 mm 3 mps 681 mmHg 30%
    21:00 +23°C° 0 mm 2 mps 681 mmHg 36%
    22:00 +21°C° 0 mm 2 mps 681 mmHg 41%
    23:00 +20°C° 0 mm 2 mps 681 mmHg 47%

    23 September, Sunday

    Time Temperature Precipitation Wind Pressure Humidity
    00:00 +20°C° 0 mm 1 mps 681 mmHg 51%
    01:00 +19°C° 0 mm 1 mps 680 mmHg 56%
    02:00 +18°C° 0 mm 1 mps 680 mmHg 60%
    03:00 +18°C° 0 mm 1 mps 680 mmHg 62%
    04:00 +16°C° 0 mm 1 mps 680 mmHg 64%
    05:00 +16°C° 0 mm 1 mps 680 mmHg 66%
    06:00 +20°C° 0 mm 1 mps 681 mmHg 56%
    07:00 +22°C° 0 mm 1 mps 682 mmHg 46%
    08:00 +25°C° 0 mm 2 mps 683 mmHg 35%
    09:00 +28°C° 0 mm 2 mps 683 mmHg 28%
    10:00 +30°C° 0 mm 2 mps 683 mmHg 21%
    11:00 +34°C° 0 mm 3 mps 683 mmHg 14%
    12:00 +35°C° 0 mm 3 mps 682 mmHg 13%
    13:00 +35°C° 0 mm 4 mps 681 mmHg 13%
    14:00 +36°C° 0 mm 4 mps 681 mmHg 13%
    15:00 +35°C° 0 mm 4 mps 681 mmHg 15%
    16:00 +33°C° 0 mm 5 mps 680 mmHg 18%
    17:00 +32°C° 0 mm 5 mps 680 mmHg 20%
    18:00 +29°C° 0 mm 4 mps 681 mmHg 25%
    19:00 +27°C° 0 mm 3 mps 681 mmHg 29%
    20:00 +25°C° 0 mm 3 mps 681 mmHg 34%
    21:00 +24°C° 0 mm 2 mps 681 mmHg 42%
    22:00 +23°C° 0 mm 2 mps 681 mmHg 50%
    23:00 +20°C° 0 mm 2 mps 681 mmHg 57%
    Show more